This is the latest recevied weather packets stored in our database for station/object N8SDR. If no packets are shown the sender has not sent any weather packets the latest 10 day(s).
| Time | Temp. | Humidity | Pressure | Rain* | Wind** | Luminosity | Snow |
|---|---|---|---|---|---|---|---|
| 1778016284 | 16.11° C | 99% | 1004.3 hPa | 3.05 mm | - | 67 W/m² | - |
| 1778015980 | 16.11° C | 99% | 1004.2 hPa | 3.05 mm | - | 55 W/m² | - |
| 1778015678 | 16.11° C | 99% | 1004.3 hPa | 1.27 mm | - | 26 W/m² | - |
| 1778015374 | 16.11° C | 99% | 1004.5 hPa | 3.05 mm | - | 31 W/m² | - |
| 1778015071 | 16.11° C | 99% | 1004.5 hPa | 1.78 mm | - | 20 W/m² | - |
| 1778014768 | 16.11° C | 99% | 1004.6 hPa | 0 mm | - | 34 W/m² | - |
| 1778014467 | 16.11° C | 99% | 1004.2 hPa | 0 mm | - | 59 W/m² | - |
| 1778014163 | 16.11° C | 99% | 1004.3 hPa | 0 mm | - | 68 W/m² | - |
| 1778013861 | 16.11° C | 99% | 1004.5 hPa | 0 mm | - | 80 W/m² | - |
| 1778013558 | 16.11° C | 99% | 1004.7 hPa | 0 mm | - | 79 W/m² | - |
| 1778013254 | 16.11° C | 99% | 1004.6 hPa | 0 mm | - | 112 W/m² | - |
| 1778012950 | 16.11° C | 99% | 1004.6 hPa | 1.27 mm | - | 123 W/m² | - |
| 1778012647 | 16.11° C | 99% | 1004.7 hPa | 1.27 mm | - | 121 W/m² | - |
| 1778012343 | 16.11° C | 99% | 1004.4 hPa | 1.78 mm | - | 97 W/m² | - |
| 1778012041 | 16.11° C | 99% | 1004.5 hPa | 1.78 mm | - | 88 W/m² | - |
| 1778011739 | 16.11° C | 99% | 1004.8 hPa | 1.27 mm | - | 96 W/m² | - |
| 1778011435 | 16.11° C | 99% | 1004.6 hPa | 1.27 mm | - | 105 W/m² | - |
| 1778011131 | 16.11° C | 99% | 1004.8 hPa | 1.78 mm | - | 92 W/m² | - |
| 1778010829 | 16.11° C | 99% | 1004.8 hPa | 4.83 mm | - | 89 W/m² | - |
| 1778010525 | 16.11° C | 98% | 1005.2 hPa | 6.1 mm | - | 79 W/m² | - |
| 1778010223 | 16.67° C | 97% | 1005.2 hPa | 4.83 mm | - | 73 W/m² | - |
| 1778009918 | 16.67° C | 96% | 1005.5 hPa | 6.1 mm | - | 65 W/m² | - |
| 1778009616 | 16.67° C | 94% | 1005.5 hPa | 6.1 mm | - | 74 W/m² | - |
| 1778009313 | 17.22° C | 92% | 1005.4 hPa | 4.83 mm | - | 50 W/m² | - |
| 1778009012 | 17.78° C | 89% | 1005.3 hPa | 3.05 mm | - | 41 W/m² | - |
* Rain latest hour (hover to see other rain measurements)
** Current wind speed in m/s (hover to see current wind gust speed)